CZ-3C DEB, 40194

Orbit data source: Space-Track

CZ-3C DEB, 40194 is space debris in HEO originally from a launch on Fri, 24 Feb 2012 UTC launched from the Xichang Space Center, China (XSC). Debris objects in space refer to the collection of defunct objects orbiting the Earth. Examples of debris include non-operational satellites, rocket bodies, and fragments generated from explosions, collisions, or faulty payload assembly.

Loading next visibility...
Identifier
40194, 2012-008D
Orbit
HEO
Country
Flag of CNCN / PRC
Related business
Manufacturer
CALT
Mission
Spacecraft
Bus & Motor
Unknown
Mass
Unknown
Launch date (UTC)
2012-02-24 (14 years ago)
Launch vehicle
Unknown
Launch site
Xichang Space Center, China (XSC)
Object type
Payload
Rocket body
Debris
Shape & HBR
Unknown shape, 1.1 m
Radar Cross Section
Medium (>0.1 m² and <1 m²)

Expand to show TLE details & history
Last TLE update: 3 weeks ago

TLE from 3 weeks ago
0 CZ-3C DEB
1 40194U 12008D   25264.46563505 -.00000211  00000-0  00000-0 0  9997
2 40194  20.6826  38.6907 6425616 322.7636   6.5362  2.12969492 92182
Epoch: 2025-09-21T11:10Z
TLE epoch observation values (Epoch: 2025-09-21T11:10:30.868Z)
Latitude
-0.00096°
Longitude
-129.50774°
Altitude
3,500.513 km
Speed
8.067 km/s
True Right ascension
02h 34m 49s
True Declination
0° 00' 03"
Sunlit
Object was in full shadow at epoch
Visualization orbit readout
Latitude
Unknown
Longitude
Unknown
Altitude
Unknown
Speed
Unknown
Apparent Right ascension
Unknown
Apparent Declination
Unknown
Sunlit
N/A
Visualization observer readout
Local Sidereal Time
17:40:30
Azimuth
Unknown
Elevation
Unknown
Doppler factor
Unknown
Orbital elements
Apogee altitude
35,542.89 km
Perigee altitude
2,744.312 km
Semi-major axis
25,521.738 km
Eccentricity
0.64256
Inclination
20.6826°
RAAN
38.6907°
Arg. of periapsis
322.7636°
True anomaly
37.06563°
Mean anomaly
6.5362°
Eccentric anomaly
17.77604°
Mean motion
0.53233 °/min
Orbital period
676.28 mins
BSTAR
0
Loading maneuver chart data...
Computing Atmospheric mass density...
Loading historical data...
Loading historical data...
Loading historical data...
Loading historical data...
Loading historical data...
Loading historical data...
Loading historical data...

Documentation

Showing up to 5 results
|